Tracking 27122 objects as of 25-Mar-2023
HD Live streaming from Space Station
objects crossing your sky now

KSF2-C

Track KSF2-C now!
10-day predictions


NORAD ID: 52189
Int'l Code: 2022-033AJ
Perigee: 465.9 km
Apogee: 477.9 km
Inclination: 97.4 °
Period: 93.9 minutes
Semi major axis: 6842 km
RCS: Unknown
Launch date: April 1, 2022
Source: Luxembourg (LUXE)
Launch site: AIR FORCE EASTERN TEST RANGE (AFETR)
Your satellite tracking list
Your tracking list is empty




NASA's NSSDC Master Catalog

Two Line Element Set (TLE):
1 52189U 22033AJ  23083.85847056  .00032910  00000-0  10079-2 0  9998
2 52189  97.3524 166.4797 0008711 106.5695  30.9468 15.33705012 54451
Source of the keplerian elements: AFSPC